Weather in Jimeta

Nigeria     9°16′00″N   12°26′51″E
temp.,
°C
wind,
m/s
gust,
m/s
humid.,
%
clouds,
%
prec.,
mm/h
press.,
hPa
HPBL,
m
15 april, thu
thu1501:00+29wnw3648100 0.0 1008235
04:00+27nw485293 0.0 1008380
07:00+26wnw475985 0.0 1010432
10:00+34wnw45375 0.0 10101019
13:00+40nne451621 0.0 10073073
16:00+41nne241113 0.0 10033563
19:00+35e22125 0.0 100413
22:00+31se11106 0.0 100611
16 april, fri
fri1601:00+29ne11115 0.0 100511
04:00+27ssw1112100 0.0 100511
07:00+28wnw2313100 0.0 100869
10:00+37wnw341743 0.0 10081245
13:00+42n241299 0.0 10043472
16:00+43ene3385 0.0 10014046
19:00+36e221140 0.0 100211
22:00+33ese12125 0.0 100411
17 april, sat
sat1701:00+29wnw221636 0.0 100311
04:00+29w41124100 0.0 1005232
07:00+30w61356100 0.0 1008717
10:00+36w673554 0.0 10081557
13:00+40wnw542097 0.0 10053193
16:00+41wnw3315100 0.0 10023883
19:00+35w222147 0.0 100325
22:00+31wsw2234100 0.0 100614
18 april, sun
sun1801:00+30w234091 0.0 100549
04:00+29wnw51051100 0.0 1006476
07:00+29w61154100 0.0 1009685
10:00+36w5634100 0.0 10091405
13:00+41nw542071 0.0 10063223
16:00+41nnw5415100 0.0 10033808
19:00+35wnw332041 0.0 100423
22:00+32sw383598 0.0 1007173
19 april, mon
mon1901:00+29wnw124493 0.0 100615
04:00+27wnw254887 0.0 100798
07:00+28wnw275382 0.0 1009304
10:00+36w3432100 0.0 10091267
13:00+41wnw4321100 0.0 10062956
16:00+41nw321625 0.0 10023786
19:00+35w112221 0.0 100311
22:00+32ssw2229100 0.0 100521